JTD156 LGSA-EKCH

Flight info

Callsign JTD156
Flight time N/A
Altitude 38000
Route SOKRI UY151 VELOP DCT DDM/N0451F370 DCT KUGGI DCT SKP/N0455F380 DCT MAKED DCT LONTA UM749 UDVAR DCT PARAK DCT AMRAX DCT REGLI DCT DENKO L996 GOSOT DCT ROE M743 TIDVU
Aircraft B738/M-SDE2E3FGHIRWXY/LB1

Departure

Time 2026-05-08 13:30
Airport Chania International Airport (LGSA)

Arrival

Time N/A
Airport Copenhagen Kastrup Airport (EKCH)
Time Latitude Longitude Altitude Speed Heading
2026-05-08 13:18 35.53869 24.14059 489 ft 0 kts 21°
2026-05-08 13:20 35.53868 24.14059 497 ft 1 kts 21°
2026-05-08 13:20 35.53846 24.14048 493 ft 4 kts 21°
2026-05-08 13:20 35.53825 24.14037 497 ft 3 kts 21°
2026-05-08 13:21 35.53801 24.14033 497 ft 4 kts 332°
2026-05-08 13:21 35.53782 24.14054 497 ft 4 kts 303°
2026-05-08 13:21 35.53771 24.14080 490 ft 1 kts 292°
2026-05-08 13:24 35.53776 24.14065 497 ft 4 kts 292°
2026-05-08 13:24 35.53771 24.14008 497 ft 10 kts 220°
2026-05-08 13:25 35.53685 24.13988 498 ft 15 kts 151°
2026-05-08 13:25 35.53632 24.14122 493 ft 20 kts 112°
2026-05-08 13:25 35.53596 24.14233 494 ft 22 kts 112°
2026-05-08 13:25 35.53517 24.14474 499 ft 24 kts 112°
2026-05-08 13:26 35.53476 24.14601 494 ft 24 kts 111°
2026-05-08 13:26 35.53413 24.14799 496 ft 25 kts 112°
2026-05-08 13:26 35.53345 24.15005 489 ft 26 kts 111°
2026-05-08 13:26 35.53275 24.15219 488 ft 27 kts 112°
2026-05-08 13:27 35.53179 24.15512 489 ft 28 kts 112°
2026-05-08 13:27 35.53130 24.15665 496 ft 29 kts 111°
2026-05-08 13:27 35.53056 24.15895 492 ft 29 kts 111°
2026-05-08 13:27 35.52980 24.16128 491 ft 30 kts 111°
2026-05-08 13:28 35.52904 24.16362 487 ft 30 kts 111°
2026-05-08 13:28 35.52826 24.16602 489 ft 31 kts 111°
2026-05-08 13:28 35.52762 24.16798 497 ft 19 kts 112°
2026-05-08 13:28 35.52685 24.16865 491 ft 15 kts 199°
2026-05-08 13:29 35.52586 24.16813 491 ft 12 kts 224°
2026-05-08 13:29 35.52586 24.16771 497 ft 0 kts 292°
2026-05-08 13:29 35.52599 24.16733 488 ft 25 kts 292°
2026-05-08 13:30 35.52755 24.16253 496 ft 95 kts 292°
2026-05-08 13:30 35.53078 24.15263 486 ft 153 kts 292°
2026-05-08 13:30 35.53512 24.13963 883 ft 168 kts 292°
2026-05-08 13:30 35.53979 24.12614 1552 ft 175 kts 293°
2026-05-08 13:31 35.54467 24.11249 2302 ft 174 kts 292°
2026-05-08 13:31 35.54911 24.09870 2930 ft 174 kts 291°
2026-05-08 13:31 35.55461 24.08544 3468 ft 176 kts 320°
2026-05-08 13:31 35.56598 24.07951 3834 ft 191 kts 355°
2026-05-08 13:32 35.57995 24.08001 4052 ft 211 kts
2026-05-08 13:32 35.59500 24.08203 4354 ft 222 kts
2026-05-08 13:32 35.61054 24.08426 4853 ft 226 kts
2026-05-08 13:32 35.62595 24.08113 5289 ft 234 kts 332°
2026-05-08 13:33 35.63960 24.06901 5532 ft 250 kts 322°
2026-05-08 13:33 35.65389 24.05514 5796 ft 270 kts 322°
2026-05-08 13:33 35.66880 24.04062 6413 ft 276 kts 322°
2026-05-08 13:33 35.68390 24.02590 7136 ft 278 kts 322°
2026-05-08 13:34 35.69924 24.01101 7821 ft 282 kts 322°
2026-05-08 13:34 35.71479 23.99598 8506 ft 286 kts 322°
2026-05-08 13:34 35.73053 23.98078 9229 ft 289 kts 322°
2026-05-08 13:34 35.74642 23.96546 9988 ft 290 kts 322°
2026-05-08 13:35 35.76233 23.95014 10814 ft 289 kts 321°
2026-05-08 13:35 35.77825 23.93479 11580 ft 292 kts 320°
2026-05-08 13:35 35.79435 23.91926 12313 ft 295 kts 319°
2026-05-08 13:35 35.81035 23.90387 13096 ft 296 kts 319°
2026-05-08 13:36 35.82657 23.88823 13832 ft 298 kts 319°
2026-05-08 13:36 35.84322 23.87213 14578 ft 302 kts 319°
2026-05-08 13:36 35.85982 23.85612 15334 ft 304 kts 319°
2026-05-08 13:36 35.87634 23.84016 16065 ft 307 kts 319°
2026-05-08 13:37 35.89345 23.82363 16745 ft 313 kts 319°
2026-05-08 13:37 35.91089 23.80676 16900 ft 334 kts 320°
2026-05-08 13:37 35.92969 23.78855 17059 ft 354 kts 320°
2026-05-08 13:37 35.94955 23.76934 17296 ft 369 kts 320°
2026-05-08 13:38 35.96998 23.74959 17810 ft 376 kts 320°
2026-05-08 13:38 35.99058 23.72966 18480 ft 377 kts 320°
2026-05-08 13:38 36.01133 23.70960 19098 ft 380 kts 320°
2026-05-08 13:38 36.03228 23.68947 19666 ft 384 kts 320°
2026-05-08 13:39 36.05349 23.66911 20205 ft 388 kts 320°
2026-05-08 13:39 36.07484 23.64863 20761 ft 391 kts 320°
2026-05-08 13:39 36.09643 23.62789 21306 ft 394 kts 320°
2026-05-08 13:39 36.11814 23.60701 21806 ft 397 kts 320°
2026-05-08 13:40 36.14006 23.58590 22296 ft 401 kts 320°
2026-05-08 13:40 36.16218 23.56458 22782 ft 404 kts 320°
2026-05-08 13:40 36.18443 23.54310 23237 ft 407 kts 320°
2026-05-08 13:40 36.20686 23.52146 23698 ft 411 kts 320°
2026-05-08 13:41 36.22950 23.49958 24144 ft 414 kts 319°
2026-05-08 13:41 36.25292 23.47862 24557 ft 420 kts 328°
2026-05-08 13:41 36.28056 23.46594 24966 ft 429 kts 345°
2026-05-08 13:41 36.31003 23.45954 25442 ft 431 kts 347°
2026-05-08 13:42 36.33977 23.45380 25837 ft 434 kts 348°
2026-05-08 13:42 36.36977 23.44814 26196 ft 438 kts 348°
2026-05-08 13:42 36.40001 23.44233 26572 ft 440 kts 347°
2026-05-08 13:42 36.43032 23.43633 26950 ft 442 kts 347°
2026-05-08 13:43 36.46077 23.43017 27311 ft 445 kts 347°
2026-05-08 13:43 36.49142 23.42387 27663 ft 447 kts 347°
2026-05-08 13:43 36.52218 23.41750 27988 ft 450 kts 347°
2026-05-08 13:43 36.55310 23.41108 28322 ft 452 kts 347°
2026-05-08 13:44 36.58418 23.40461 28639 ft 454 kts 347°
2026-05-08 13:44 36.61542 23.39813 28963 ft 456 kts 347°
2026-05-08 13:44 36.64644 23.39168 29257 ft 459 kts 347°
2026-05-08 13:44 36.67797 23.38512 29557 ft 461 kts 347°
2026-05-08 13:45 36.70964 23.37854 29835 ft 463 kts 347°
2026-05-08 13:45 36.74154 23.37190 30118 ft 465 kts 347°
2026-05-08 13:45 36.77346 23.36525 30400 ft 467 kts 347°
2026-05-08 13:45 36.80562 23.35854 30684 ft 468 kts 347°
2026-05-08 13:46 36.83773 23.35185 31067 ft 467 kts 347°
2026-05-08 13:46 36.86978 23.34518 31471 ft 466 kts 346°
2026-05-08 13:46 36.90166 23.33855 31870 ft 464 kts 346°
2026-05-08 13:46 36.93345 23.33192 32223 ft 463 kts 346°
2026-05-08 13:47 36.96522 23.32529 32566 ft 463 kts 346°
2026-05-08 13:47 36.99696 23.31865 32924 ft 461 kts 346°
2026-05-08 13:47 37.02857 23.31202 33249 ft 461 kts 346°
2026-05-08 13:47 37.06014 23.30540 33569 ft 460 kts 346°
2026-05-08 13:48 37.09168 23.29880 33906 ft 458 kts 346°
2026-05-08 13:48 37.12309 23.29221 34229 ft 457 kts 346°
2026-05-08 13:48 37.15447 23.28577 34510 ft 457 kts 346°
2026-05-08 13:48 37.18581 23.27930 34810 ft 456 kts 346°
2026-05-08 13:49 37.21702 23.27270 35121 ft 454 kts 346°
2026-05-08 13:49 37.24815 23.26606 35418 ft 453 kts 346°
2026-05-08 13:49 37.27926 23.25941 35668 ft 453 kts 346°
2026-05-08 13:49 37.31032 23.25277 35912 ft 452 kts 346°
2026-05-08 13:50 37.34139 23.24615 36164 ft 452 kts 346°
2026-05-08 13:50 37.37238 23.23954 36430 ft 451 kts 346°
2026-05-08 13:50 37.40334 23.23295 36677 ft 451 kts 346°
2026-05-08 13:50 37.43424 23.22646 36964 ft 450 kts 348°
2026-05-08 13:51 37.46563 23.22513 37282 ft 455 kts
2026-05-08 13:51 37.49678 23.23244 37628 ft 458 kts 13°
2026-05-08 13:51 37.52638 23.24782 37892 ft 462 kts 24°
2026-05-08 13:51 37.55446 23.26730 38098 ft 462 kts 26°
2026-05-08 13:52 37.61080 23.30762 38079 ft 466 kts 26°
2026-05-08 13:52 37.66726 23.34713 38063 ft 462 kts 25°
2026-05-08 13:53 37.72346 23.38586 38055 ft 458 kts 25°
2026-05-08 13:53 37.77946 23.42340 38052 ft 452 kts 18°
2026-05-08 13:54 37.83954 23.44314 38061 ft 446 kts
2026-05-08 13:54 37.90177 23.45058 38068 ft 452 kts
2026-05-08 13:55 37.96469 23.45784 38051 ft 455 kts
2026-05-08 13:56 38.05943 23.46965 38043 ft 457 kts
2026-05-08 13:56 38.12270 23.47779 38044 ft 456 kts
2026-05-08 13:57 38.18542 23.48591 38047 ft 455 kts
2026-05-08 13:57 38.24835 23.49405 38039 ft 454 kts
2026-05-08 13:58 38.31110 23.50215 38042 ft 452 kts
2026-05-08 13:58 38.37352 23.51022 38046 ft 450 kts
2026-05-08 13:59 38.43616 23.51834 38042 ft 449 kts
2026-05-08 13:59 38.49780 23.52634 38044 ft 447 kts
2026-05-08 14:00 38.55966 23.53437 38046 ft 446 kts
2026-05-08 14:00 38.62147 23.54243 38061 ft 447 kts
2026-05-08 14:01 38.68347 23.55052 38055 ft 448 kts
2026-05-08 14:01 38.74574 23.55866 38057 ft 450 kts
2026-05-08 14:02 38.80816 23.56683 38058 ft 452 kts
2026-05-08 14:02 38.87086 23.57507 38055 ft 453 kts
2026-05-08 14:03 38.93366 23.58334 38058 ft 455 kts
2026-05-08 14:03 38.99666 23.59163 38051 ft 456 kts
2026-05-08 14:04 39.05979 23.59996 38045 ft 456 kts
2026-05-08 14:04 39.12293 23.60830 38046 ft 456 kts
2026-05-08 14:05 39.18523 23.60743 38055 ft 447 kts 346°
2026-05-08 14:05 39.24370 23.58335 38059 ft 439 kts 333°
2026-05-08 14:06 39.29971 23.55188 38048 ft 439 kts 333°
2026-05-08 14:06 39.34822 23.52466 38045 ft 439 kts 333°
2026-05-08 14:07 39.39021 23.50133 38044 ft 439 kts 333°
2026-05-08 14:07 39.44295 23.47220 38046 ft 438 kts 333°
2026-05-08 14:08 39.49905 23.44124 38050 ft 438 kts 333°
2026-05-08 14:08 39.55511 23.41024 38058 ft 438 kts 333°
2026-05-08 14:09 39.61116 23.37923 38054 ft 438 kts 333°
2026-05-08 14:09 39.66725 23.34812 38057 ft 438 kts 333°
2026-05-08 14:10 39.71391 23.32219 38055 ft 439 kts 333°
2026-05-08 14:10 39.77011 23.29090 38052 ft 440 kts 333°
2026-05-08 14:11 39.82634 23.25954 38047 ft 440 kts 333°
2026-05-08 14:11 39.88265 23.22810 38047 ft 440 kts 333°
2026-05-08 14:12 39.93900 23.19656 38056 ft 441 kts 333°
2026-05-08 14:12 39.99538 23.16495 38056 ft 441 kts 333°
2026-05-08 14:13 40.05176 23.13329 38051 ft 441 kts 333°
2026-05-08 14:13 40.10815 23.10158 38065 ft 441 kts 333°
2026-05-08 14:14 40.16454 23.06980 38065 ft 442 kts 333°
2026-05-08 14:14 40.22102 23.03790 38065 ft 442 kts 333°
2026-05-08 14:15 40.27753 23.00593 38072 ft 442 kts 333°
2026-05-08 14:15 40.33397 22.97394 38076 ft 443 kts 333°
2026-05-08 14:16 40.39054 22.94183 38072 ft 443 kts 333°
2026-05-08 14:16 40.44714 22.90964 38079 ft 443 kts 333°
2026-05-08 14:17 40.50377 22.87736 38071 ft 444 kts 333°
2026-05-08 14:17 40.56042 22.84502 38074 ft 444 kts 333°
2026-05-08 14:18 40.61678 22.81278 38076 ft 444 kts 333°
2026-05-08 14:18 40.67348 22.78028 38071 ft 444 kts 333°
2026-05-08 14:19 40.73026 22.74769 38075 ft 445 kts 333°